Lapse_Rate
6.5 6.4 6.4 6.4 6.2 6.0 5.8 5.5 5.4 5.4 5.4 5.5 5.4 5.4 5.4 5.4 5.5 5.5 5.6 5.9 6.3 6.6 7.0 7.3 7.3 7.3 7.1 6.9 6.8 6.6 6.5 6.1 6.2 6.6 6.6 6.5 6.4 6.4 6.5 6.2 6.2 6.0 6.3 6.2 5.8
6.6 6.6 6.5 6.4 6.4 6.3 6.1 5.9 5.5 5.5 5.5 5.6 5.5 5.5 5.5 5.4 5.6 5.8 5.8 6.0 6.2 6.6 7.0 7.1 7.0 6.9 7.2 6.9 6.5 6.3 6.8 6.4 6.2 6.5 6.7 6.3 6.0 6.4 6.4 6.3 6.3 6.3 6.0 6.0 5.9
6.7 6.7 6.6 6.5 6.4 6.3 6.3 6.1 5.9 5.5 5.6 5.7 5.7 5.6 5.6 5.5 5.7 5.9 6.0 6.1 6.2 6.4 7.1 7.2 7.0 6.7 6.7 6.4 6.3 6.4 6.7 6.5 6.6 6.9 6.8 6.3 6.4 6.7 6.4 6.3 5.9 6.0 6.0 6.0 6.1
7.0 6.8 6.8 6.6 6.5 6.3 6.2 6.2 6.1 5.8 5.8 5.7 5.7 5.7 5.6 5.7 6.1 6.3 6.0 5.7 5.9 6.3 6.6 6.7 6.7 6.6 6.7 6.2 6.1 6.3 6.6 6.8 6.8 7.1 6.8 6.2 6.3 6.4 6.2 6.0 6.0 6.0 6.2 6.0 5.8
7.1 7.0 7.0 6.8 6.7 6.4 6.3 6.2 6.2 6.1 6.0 6.0 5.8 5.6 5.7 6.0 6.2 6.5 6.3 5.6 5.8 6.2 6.7 6.6 6.4 6.2 6.2 6.7 6.6 6.5 6.5 6.2 6.5 6.7 6.3 6.0 6.0 6.2 6.1 6.0 5.9 6.2 6.3 5.9 6.0
7.1 7.2 7.1 7.0 6.8 6.7 6.5 6.2 6.1 6.2 6.2 6.3 6.2 5.8 5.9 6.1 6.4 6.4 6.2 6.1 6.0 6.4 6.6 6.5 6.3 6.7 6.5 7.0 6.8 6.7 6.3 6.4 6.8 6.5 6.3 6.0 6.1 6.1 6.1 6.0 5.8 5.9 5.9 5.9 5.8
7.0 7.2 7.2 7.0 7.0 6.7 6.6 6.4 6.2 6.2 6.3 6.3 6.5 6.1 6.1 6.3 6.5 6.3 6.5 6.3 6.2 6.7 6.6 6.9 6.9 7.0 6.8 7.1 6.9 6.5 6.6 6.6 6.8 6.7 6.3 6.1 6.1 6.2 6.2 6.0 5.7 5.9 5.9 5.8 6.0
6.9 7.0 6.9 7.0 7.0 6.9 6.8 6.5 6.1 6.2 6.3 6.5 6.8 6.3 6.4 6.7 6.7 6.5 6.7 6.7 6.5 6.8 6.7 7.0 7.1 6.9 6.9 7.2 7.0 6.5 6.6 6.7 6.6 6.6 6.3 6.2 6.1 6.2 6.6 6.0 6.0 5.9 5.8 5.8 5.7
6.9 6.8 6.7 6.7 6.7 6.6 6.4 6.3 6.2 6.4 6.7 6.8 7.0 6.7 6.7 7.0 6.9 6.8 6.7 6.9 6.8 7.1 7.0 7.2 7.3 7.3 7.1 6.8 7.1 7.1 7.0 7.2 6.7 6.7 6.4 6.3 6.4 6.3 6.7 6.4 5.9 5.9 6.0 5.8 5.6
6.8 6.7 6.6 6.6 6.6 6.5 6.4 6.4 6.5 6.6 6.8 7.0 7.1 6.9 7.1 7.2 7.4 7.1 7.2 7.2 7.3 7.2 7.1 7.4 7.4 7.3 7.4 7.3 7.4 7.8 7.4 7.6 7.3 6.8 6.6 6.7 6.5 6.4 6.8 6.6 6.1 6.1 5.8 6.0 6.4
6.9 6.8 6.6 6.6 6.6 6.6 6.5 6.5 6.5 6.6 6.9 7.1 7.1 7.2 7.2 7.4 7.3 7.4 7.4 7.4 7.6 7.5 7.6 7.9 7.7 7.2 7.4 7.4 7.3 7.8 7.6 7.3 7.1 6.7 6.6 6.9 7.0 6.8 6.8 7.1 6.6 6.3 6.1 6.4 6.6
6.8 6.7 6.6 6.5 6.5 6.6 6.6 6.9 6.9 6.7 6.7 6.8 7.1 7.3 7.6 7.6 7.5 7.4 7.2 7.4 7.7 7.9 8.0 7.9 8.0 7.7 7.5 7.3 7.4 7.5 7.6 7.9 7.9 7.1 6.8 7.0 6.9 6.5 6.8 7.2 7.0 6.4 6.3 6.7 6.5
6.8 6.7 6.7 6.6 6.6 6.6 6.9 7.1 7.1 7.0 7.1 7.1 7.3 7.6 7.9 7.9 7.8 7.7 7.8 7.8 7.7 8.0 7.9 8.1 8.0 8.0 7.9 7.6 7.6 7.6 7.7 7.8 7.8 7.6 7.1 6.9 6.9 6.8 6.7 6.7 6.9 6.8 6.4 6.3 6.5
6.8 6.8 6.8 7.0 7.0 7.1 7.3 7.6 7.5 7.6 7.6 7.8 7.9 7.9 8.0 7.9 7.8 7.8 8.1 7.8 7.7 8.0 8.0 8.2 8.2 7.9 7.8 7.8 7.6 7.2 7.6 7.4 7.2 7.3 7.0 6.8 6.6 7.2 6.8 6.7 6.5 6.9 6.9 6.5 6.5
7.0 7.0 7.1 7.2 7.1 7.5 7.8 7.9 7.6 7.8 7.0 8.1 8.2 8.2 8.2 8.1 8.3 8.0 8.2 7.8 7.8 8.0 8.0 8.2 8.0 7.7 7.8 8.0 7.9 7.6 7.5 7.6 6.8 6.9 6.5 6.4 6.2 7.3 7.2 7.0 6.7 6.6 7.0 6.9 6.6
7.3 7.2 7.3 7.5 7.7 8.0 8.2 7.9 8.0 8.1 8.1 8.3 8.3 8.2 8.3 8.1 8.3 8.5 8.2 7.8 7.6 7.5 7.8 8.1 8.1 7.9 8.0 7.9 7.9 7.8 8.0 7.4 6.7 6.8 6.5 7.0 6.6 7.4 7.6 7.8 7.4 7.3 7.2 7.1 7.0
7.4 7.5 7.6 7.8 8.1 8.2 8.0 7.9 8.0 8.0 8.1 8.3 8.0 8.2 8.1 8.0 8.0 8.2 8.1 7.8 7.5 7.4 7.8 8.4 8.6 8.4 8.3 8.2 7.7 7.5 8.0 7.2 6.5 5.8 5.9 6.4 6.3 7.6 7.3 7.4 7.4 7.7 7.4 7.4 7.3
7.5 7.7 7.8 7.9 8.2 8.1 8.0 7.9 8.0 8.2 8.3 8.2 8.0 8.0 8.2 8.1 8.1 8.2 8.0 7.9 7.7 7.5 7.7 8.2 8.7 8.8 8.4 8.5 8.1 7.8 7.8 7.9 7.3 5.9 6.5 7.1 7.3 8.3 7.6 7.6 7.5 7.5 7.6 7.2 7.1
7.6 7.6 7.7 7.7 8.0 8.2 8.2 8.1 7.9 8.2 8.4 8.5 8.7 8.5 8.4 8.4 8.2 8.1 8.0 8.0 8.0 7.8 7.8 8.1 8.7 8.9 9.0 8.6 8.3 7.9 7.6 7.7 7.8 7.1 6.1 7.5 8.1 8.3 7.8 7.7 7.4 7.3 7.4 7.3 7.1
7.4 7.5 7.5 7.7 7.8 7.9 8.2 8.2 8.4 8.4 8.5 8.7 8.8 9.0 9.0 8.8 8.8 8.9 8.8 8.9 8.8 8.3 8.2 8.3 8.4 9.0 8.8 8.6 8.2 8.1 8.1 8.1 8.1 7.3 7.3 7.7 7.9 8.5 8.0 7.6 7.5 7.7 7.6 7.2 7.1
7.2 7.3 7.5 7.6 7.7 7.8 7.9 8.2 8.4 8.5 8.4 8.6 8.6 8.7 9.0 9.0 9.0 9.1 9.1 9.3 9.5 9.3 8.6 8.4 8.4 8.8 8.9 8.9 8.8 8.1 8.1 8.2 8.1 7.9 7.0 6.1 8.1 8.5 8.2 7.6 7.9 7.7 7.8 6.8 6.4
7.1 7.0 7.3 7.3 7.5 7.5 7.8 7.7 7.9 8.0 8.4 8.7 8.7 8.7 8.8 8.8 8.9 9.0 9.2 9.3 9.5 9.4 9.2 8.8 8.6 8.6 9.1 8.8 8.8 8.6 8.3 8.3 8.4 8.3 7.5 7.3 8.3 8.4 7.9 7.7 7.5 7.5 7.4 6.9 6.1
6.9 7.0 7.1 7.1 7.1 7.3 7.8 7.9 7.9 8.1 8.0 8.4 8.7 8.8 8.6 8.5 8.6 9.0 9.0 9.3 9.3 9.3 9.5 9.3 8.5 8.4 8.9 9.1 8.8 8.5 8.5 8.1 8.3 8.5 8.2 7.6 8.7 8.7 8.3 7.8 7.5 7.3 7.4 7.1 6.2
6.3 6.4 6.5 6.8 7.1 7.2 7.3 7.7 7.7 7.9 8.1 8.2 8.5 8.6 8.6 8.1 8.2 8.9 9.1 9.0 9.3 9.4 9.3 9.1 9.2 9.1 9.0 9.3 9.1 8.6 8.6 8.1 8.2 8.1 8.6 8.8 9.1 8.9 8.5 7.9 7.6 7.5 7.6 7.4 7.2
6.2 6.1 6.3 5.9 6.2 6.7 7.0 7.3 7.3 7.7 7.8 8.0 8.4 8.4 8.7 8.6 8.3 8.7 8.9 9.0 9.3 9.3 9.3 8.9 9.1 9.3 9.3 9.2 9.0 8.8 8.5 8.4 8.3 8.6 8.6 9.3 9.2 9.0 8.5 7.9 7.5 7.5 7.5 7.5 7.6
5.9 6.0 6.0 6.0 5.8 6.2 6.3 7.1 7.4 7.5 7.7 7.9 8.0 8.0 8.2 9.1 8.4 8.3 8.3 8.7 8.8 9.0 9.0 9.0 9.1 9.2 9.2 9.0 8.8 8.7 8.6 8.4 8.2 8.6 8.8 8.7 9.1 9.1 8.5 7.9 7.5 7.6 7.5 7.4 7.4
5.7 5.8 5.8 6.0 6.0 6.0 6.2 6.5 7.0 7.4 7.6 7.8 7.9 8.0 8.2 8.6 8.5 8.3 8.5 8.7 8.8 8.7 8.9 9.1 9.2 9.2 9.0 8.9 8.8 8.8 9.0 8.9 8.6 8.8 9.3 9.2 9.5 9.1 8.8 8.0 7.6 7.6 7.6 7.6 7.3
Wind_Speed
16 13 11 10 8 7 6 5 6 7 9 11 11 10 10 11 10 2 4 8 7 10 11 9 8 7 7 2 2 1 4 4 4 7 4 7 5 3 6 10 2 5 5 10 10
17 14 11 9 8 6 5 4 4 7 9 12 11 11 10 11 2 6 9 11 12 16 6 8 5 10 4 3 2 3 3 3 2 8 4 0 5 6 4 4 4 5 11 13 10
18 14 12 8 7 5 4 4 4 6 9 11 10 11 11 9 1 5 8 16 17 13 1 3 6 2 5 1 1 1 2 2 2 9 1 5 4 2 7 2 5 10 17 11 6
19 14 11 9 6 5 4 3 4 7 9 9 9 10 12 1 1 2 12 17 17 7 5 3 4 4 4 3 1 2 6 3 7 15 5 7 5 4 4 4 7 17 17 10 9
20 14 11 9 6 4 3 3 4 7 9 9 7 8 2 1 6 2 6 10 7 3 4 3 5 3 4 1 1 2 3 3 6 7 13 13 9 5 6 7 13 16 12 11 8
21 16 12 9 7 4 3 3 5 6 8 9 6 8 1 2 2 9 6 4 6 3 3 3 4 4 5 2 1 2 2 2 4 9 9 7 2 3 3 8 13 14 7 7 9
21 17 12 10 7 5 4 4 5 6 8 8 5 3 0 3 1 9 5 3 2 4 4 1 4 2 6 3 2 4 3 1 6 4 3 2 5 4 7 7 14 8 6 7 7
21 18 14 11 8 6 6 5 5 5 7 8 4 1 5 4 10 6 5 5 8 6 6 2 4 5 3 6 2 4 4 4 2 2 2 5 1 3 6 10 11 6 5 6 8
23 19 15 11 8 8 6 4 4 4 4 5 2 2 2 1 5 3 2 6 5 3 5 5 4 3 3 1 3 4 2 3 2 2 4 3 3 6 7 6 7 6 6 7 7
22 19 15 11 9 7 6 2 2 1 2 3 3 2 1 5 5 6 2 6 5 4 4 5 5 3 3 2 2 6 4 5 5 6 3 4 4 8 10 8 9 7 7 8 9
22 19 14 10 9 7 3 4 3 3 1 6 3 3 1 1 7 5 6 4 4 2 3 2 3 4 10 9 2 2 3 0 4 1 2 4 5 10 11 7 7 8 9 11 13
24 19 16 10 9 6 1 2 3 4 4 5 2 6 5 2 4 6 12 7 5 3 4 3 4 7 7 6 6 5 2 2 3 1 1 2 1 6 12 13 13 10 11 14 12
25 20 16 10 6 1 2 5 2 3 2 5 4 4 6 7 4 10 17 4 4 4 5 4 6 4 4 4 7 3 4 2 3 3 2 1 4 5 6 4 8 9 9 9 13
25 20 15 9 2 1 4 2 2 2 4 3 3 6 4 3 3 7 10 6 1 7 7 6 4 3 5 5 6 2 5 3 7 3 2 4 4 5 7 11 10 13 11 13 12
27 22 13 4 4 3 1 4 3 2 5 3 2 1 2 7 4 5 6 4 8 6 5 6 2 2 4 5 10 6 7 8 6 5 3 2 1 5 8 11 16 17 15 15 15
29 22 7 3 2 5 6 3 3 5 3 1 4 4 3 2 2 5 5 0 4 5 3 6 3 3 5 5 6 7 9 7 4 3 3 3 4 4 5 16 15 16 18 19 17
34 22 8 3 1 5 2 3 5 5 3 1 4 4 3 4 2 2 5 5 6 3 5 6 4 2 4 7 4 4 4 4 5 3 5 5 3 9 6 6 9 17 19 19 18
37 1 7 3 5 7 2 5 4 1 5 3 3 3 6 4 3 3 4 1 1 4 3 3 6 6 4 4 6 3 4 5 2 3 4 2 5 4 7 4 6 12 10 12 14
25 1 1 3 13 3 5 4 4 4 3 4 2 3 1 1 2 3 6 6 8 8 8 4 6 3 3 3 8 4 4 3 5 2 2 2 6 7 4 3 3 6 6 6 7
3 3 3 3 11 4 5 4 3 4 3 1 1 2 4 3 5 6 6 5 7 12 6 5 3 1 2 5 5 3 6 3 2 2 4 4 5 5 3 3 2 3 5 5 7
3 4 5 5 0 5 2 5 5 7 4 3 2 2 4 2 6 3 6 6 8 6 7 7 4 6 2 4 8 2 1 5 3 3 3 2 7 6 7 6 3 4 6 5 5
3 3 3 2 3 1 1 4 4 4 3 2 2 1 2 2 3 5 8 7 6 9 11 7 5 5 11 3 2 4 6 5 5 4 2 3 7 4 7 4 5 3 5 5 6
2 2 3 3 1 3 5 5 4 2 3 3 2 1 1 3 2 4 3 4 6 8 10 9 3 2 9 6 4 3 4 4 4 3 6 5 6 2 3 1 6 6 5 6 6
2 3 4 4 1 2 3 4 4 3 4 3 3 1 3 2 2 4 3 4 2 5 7 7 4 8 9 7 4 4 5 5 5 3 5 6 4 1 3 5 4 5 5 5 6
4 1 3 3 3 5 2 2 3 4 2 4 1 4 5 3 3 4 3 5 4 3 3 4 9 5 5 6 4 3 4 7 8 5 6 4 8 8 9 8 6 7 6 8 7
3 4 6 3 3 3 1 3 1 5 2 3 2 4 5 6 7 7 3 3 4 4 2 2 2 2 3 3 4 5 5 3 7 4 10 4 6 5 3 7 7 8 8 8 6
3 3 1 4 4 2 2 4 3 7 6 7 7 10 6 4 7 9 8 3 5 2 1 3 6 3 5 2 1 3 6 7 5 5 6 7 6 7 5 8 8 7 8 10 9
Wind_Direction
353 348 343 341 338 335 334 336 327 315 309 306 318 334 341 335 315 135 230 215 183 172 142 156 178 161 115 86 69 114 53 33 9 9 268 154 137 64 87 136 171 147 142 137 132
350 345 342 344 337 334 328 325 318 306 301 305 323 335 338 337 273 224 241 209 201 175 148 176 140 153 106 94 35 70 96 6 325 339 311 235 96 125 129 122 52 78 106 121 130
350 346 342 344 339 333 327 312 309 298 297 303 325 331 328 327 250 241 204 193 178 177 204 109 105 125 68 51 17 3 102 348 274 320 288 109 85 69 110 219 187 160 143 138 122
353 349 347 348 347 337 323 300 302 293 293 303 327 327 317 231 223 277 189 184 185 181 104 107 37 51 80 36 142 112 31 267 10 2 109 120 87 86 46 334 153 154 145 134 139
354 358 351 352 348 341 322 289 278 282 288 300 328 327 342 242 257 171 172 180 140 155 60 92 44 107 109 133 179 48 54 351 318 38 55 78 59 92 79 101 121 135 141 145 156
355 357 355 351 350 338 310 286 276 276 285 298 327 315 354 228 74 152 151 115 77 79 70 3 156 146 84 352 53 129 173 302 349 72 61 89 63 101 114 129 131 144 128 136 175
357 356 356 355 351 340 311 289 278 275 285 297 329 292 202 253 115 157 137 81 47 131 109 16 115 113 169 169 164 111 96 356 36 45 93 166 31 34 132 148 148 159 151 168 201
357 358 356 354 352 335 314 295 280 274 285 297 321 281 242 2 148 141 149 68 52 56 96 123 114 93 37 330 37 64 50 21 359 347 119 103 268 161 161 154 161 175 178 190 231
359 357 356 351 348 333 317 305 283 269 266 293 327 33 296 347 139 201 50 123 90 64 92 104 73 66 36 42 43 15 163 191 236 231 136 109 200 171 179 156 170 206 199 210 232
350 359 355 349 336 333 311 256 137 85 252 237 269 16 133 221 169 148 139 132 99 134 91 41 45 59 12 85 213 202 202 210 180 190 159 134 190 162 184 172 192 206 209 219 228
349 353 356 345 327 343 63 105 48 37 256 192 220 250 187 306 127 169 140 115 134 71 123 34 73 209 218 220 290 298 333 134 76 2 216 183 164 184 184 197 205 197 215 223 227
343 348 353 345 332 342 81 167 205 165 313 232 244 280 242 261 106 147 147 170 175 151 122 53 237 233 224 233 240 271 271 60 102 292 115 39 326 201 183 207 204 208 215 220 229
339 340 342 339 323 344 194 232 88 86 119 297 192 217 236 138 199 189 167 158 173 154 180 191 239 134 201 214 208 218 228 81 110 111 39 30 328 182 204 209 219 220 223 236 222
336 334 329 329 317 212 247 235 58 147 69 304 270 270 158 132 219 197 174 144 281 209 163 245 273 191 202 240 159 265 224 170 105 80 353 51 277 230 204 213 212 227 219 222 222
333 330 319 278 143 175 138 8 112 79 47 297 167 302 268 157 152 235 186 127 181 201 131 251 243 271 232 235 163 238 94 98 96 87 74 216 110 268 165 226 228 224 220 229 227
333 326 302 170 206 249 356 348 62 40 23 65 142 158 151 355 283 114 142 251 147 138 289 241 282 225 205 33 123 96 81 50 60 67 358 171 134 276 186 217 226 226 226 226 230
334 327 179 197 186 342 319 76 31 84 336 281 207 161 166 196 302 88 133 154 164 103 291 339 270 237 136 88 7 134 57 16 7 14 228 128 87 246 230 214 210 212 218 220 218
334 185 229 235 312 338 79 49 43 221 250 311 51 72 172 157 267 43 80 213 72 94 107 133 316 193 176 180 164 147 132 145 287 236 271 97 232 249 188 267 256 232 206 211 214
328 221 244 269 217 325 72 68 215 212 249 318 87 115 260 213 199 165 190 212 203 165 168 178 273 274 164 147 133 194 219 163 98 345 309 233 283 298 259 248 359 62 147 184 207
338 340 355 45 152 57 74 229 228 228 339 78 103 130 168 219 164 161 188 219 220 184 156 198 299 189 92 80 28 167 145 104 33 248 293 296 278 229 259 118 63 81 111 138 146
8 47 329 47 18 53 150 234 272 256 220 188 175 146 203 196 195 226 218 262 204 187 149 141 127 282 1 176 173 160 183 66 126 144 179 299 279 215 211 150 177 168 167 176 133
8 63 317 5 46 52 182 203 256 288 343 299 138 131 143 100 240 232 221 228 173 150 165 193 155 237 243 318 257 169 181 147 132 237 130 147 274 329 238 163 133 138 177 197 116
49 276 316 80 88 316 299 282 231 257 268 302 273 209 183 137 300 203 257 223 150 163 170 175 192 352 339 347 352 204 187 113 88 76 187 143 264 10 346 153 102 139 170 179 141
33 18 335 41 112 133 322 275 286 230 244 240 259 17 116 66 232 279 272 288 166 192 162 102 138 167 207 202 159 200 169 145 126 138 171 224 266 238 227 196 130 117 149 160 165
17 46 151 323 349 330 257 281 289 304 226 202 277 262 145 153 269 241 258 327 311 34 68 125 193 166 223 227 180 230 189 164 184 193 195 248 207 194 201 198 162 150 139 136 134
40 15 346 287 300 317 220 251 217 334 288 278 157 214 242 155 181 257 193 166 253 340 111 25 205 171 211 320 248 251 214 191 254 235 259 220 247 200 157 110 131 152 145 127 122
343 343 49 301 338 353 256 312 317 350 277 239 16 325 245 239 188 219 200 203 239 219 179 140 133 114 231 127 249 341 231 213 224 223 171 194 230 152 136 138 154 156 152 137 136